THOR ABLESTAR DEB, 225

Orbit data source: Space-Track

THOR ABLESTAR DEB, 225 is space debris in LEO originally from a launch on Thu, 29 Jun 1961 UTC launched from the Air Force Eastern Test Range (AFETR). Debris objects in space refer to the collection of defunct objects orbiting the Earth. Examples of debris include non-operational satellites, rocket bodies, and fragments generated from explosions, collisions, or faulty payload assembly.

Loading next visibility...
Identifier
225, 1961-015BM
Orbit
LEO
Country
Flag of USUS
Related business
Manufacturer
Unknown
Mission
Spacecraft
Bus & Motor
Unknown
Mass
Unknown
Launch date (UTC)
1961-06-29 (64 years ago)
Launch vehicle
Unknown
Launch site
Air Force Eastern Test Range (AFETR)
Object type
Payload
Rocket body
Debris
Shape & HBR
Unknown shape, 0.1 m
Radar Cross Section
Small (<0.1 m²)

Expand to show TLE details & history
Last TLE update: 11 hours ago

TLE from 11 hours ago
0 THOR ABLESTAR DEB
1 00225U 61015BM  25351.77860598  .00001411  00000-0  46787-3 0  9990
2 00225  66.7969   6.4864 0101172 349.5102  10.3888 14.37917713331646
Epoch: 2025-12-17T18:41Z
TLE epoch observation values (Epoch: 2025-12-17T18:41:11.556Z)
Latitude
-0.00003°
Longitude
-0.45534°
Altitude
696.437 km
Speed
7.546 km/s
True Right ascension
00h 25m 56s
True Declination
0° 00' 00"
Sunlit
Object was in daylight at epoch
Visualization orbit readout
Latitude
Unknown
Longitude
Unknown
Altitude
Unknown
Speed
Unknown
Apparent Right ascension
Unknown
Apparent Declination
Unknown
Sunlit
N/A
Visualization observer readout
Local Sidereal Time
04:05:42
Azimuth
Unknown
Elevation
Unknown
Doppler factor
Unknown
Orbital elements
Apogee altitude
836 km
Perigee altitude
691.488 km
Semi-major axis
7,141.881 km
Eccentricity
0.01012
Inclination
66.7969°
RAAN
6.4864°
Arg. of periapsis
349.5102°
True anomaly
10.60049°
Mean anomaly
10.3888°
Eccentric anomaly
10.49438°
Mean motion
3.59604 °/min
Orbital period
100.11 mins
BSTAR
0.00046787

Documentation

Showing up to 5 results
|